Location: Warszawa
(52.2500°N, 21.0000°E)
Time: 10:20:53
(UTC+01:00)

Vanguard 2 - Pass Details

Date: 05 October 2023
Orbit: 552 x 2923 km, 32.9° (Epoch: 07 December)

Event Time Altitude Azimuth Distance (km) Brightness Sun altitude
Rises 18:23:16 0° 241° (WSW) 6,763 13.7 -3.6°
Reaches altitude 10° 18:28:27 10° 233° (SW) 5,729 13.0 -4.4°
Maximum altitude 18:42:46 34° 178° (S) 3,630 10.9 -6.6°
Drops below altitude 10° 18:53:51 10° 121° (ESE) 4,436 10.9 -8.3°
Enters shadow 18:55:22 - 116° (ESE) 4,723 11.0 -8.5°
